| time (UTC) | temp C | wind direction | speed KPH | gust KPH | rain 1hr cm | rain 24hr cm | rain mn cm | humidity % | barometer mb |
| 20260506235635 | 26 | 192 | 9.7 | 14.5 | 0.00 | 0.00 | 0.00 | 41 | 1012.8 |
| 20260506234632 | 26 | 201 | 14.5 | 22.5 | 0.00 | 0.00 | 0.00 | 41 | 1012.7 |
| 20260506233630 | 26 | 210 | 9.7 | 17.7 | 0.00 | 0.00 | 0.00 | 41 | 1012.8 |
| 20260506232632 | 26 | 203 | 14.5 | 17.7 | 0.00 | 0.00 | 0.00 | 41 | 1012.9 |
| 20260506231625 | 26 | 205 | 11.3 | 17.7 | 0.00 | 0.00 | 0.00 | 42 | 1013.0 |
| 20260506230641 | 26 | 212 | 16.1 | 24.1 | 0.00 | 0.00 | 0.00 | 39 | 1013.0 |
| 20260506225623 | 26 | 223 | 14.5 | 22.5 | 0.00 | 0.00 | 0.00 | 40 | 1013.0 |
| 20260506224644 | 26 | 206 | 16.1 | 20.9 | 0.00 | 0.00 | 0.00 | 40 | 1013.1 |
| 20260506223635 | 26 | 206 | 16.1 | 24.1 | 0.00 | 0.00 | 0.00 | 38 | 1013.2 |
| 20260506222633 | 26 | 205 | 16.1 | 24.1 | 0.00 | 0.00 | 0.00 | 37 | 1013.5 |
| 20260506221631 | 26 | 196 | 16.1 | 24.1 | 0.00 | 0.00 | 0.00 | 34 | 1013.6 |
| 20260506220632 | 26 | 220 | 16.1 | 24.1 | 0.00 | 0.00 | 0.00 | 35 | 1013.8 |
| 20260506215624 | 26 | 203 | 16.1 | 19.3 | 0.00 | 0.00 | 0.00 | 32 | 1013.9 |
| 20260506214627 | 26 | 218 | 11.3 | 16.1 | 0.00 | 0.00 | 0.00 | 33 | 1013.9 |
| 20260506213625 | 26 | 200 | 12.9 | 19.3 | 0.00 | 0.00 | 0.00 | 34 | 1013.9 |
| 20260506212624 | 26 | 203 | 17.7 | 27.4 | 0.00 | 0.00 | 0.00 | 33 | 1014.2 |
| 20260506211646 | 26 | 195 | 12.9 | 19.3 | 0.00 | 0.00 | 0.00 | 34 | 1014.1 |
| 20260506210655 | 26 | 202 | 19.3 | 25.7 | 0.00 | 0.00 | 0.00 | 34 | 1014.3 |
| 20260506205634 | 26 | 185 | 11.3 | 24.1 | 0.00 | 0.00 | 0.00 | 35 | 1014.4 |
| 20260506204631 | 26 | 204 | 12.9 | 22.5 | 0.00 | 0.00 | 0.00 | 36 | 1014.4 |
| 20260506203632 | 26 | 209 | 14.5 | 25.7 | 0.00 | 0.00 | 0.00 | 37 | 1014.5 |
| 20260506202629 | 26 | 213 | 12.9 | 17.7 | 0.00 | 0.00 | 0.00 | 37 | 1014.4 |
| 20260506201628 | 25 | 213 | 16.1 | 32.2 | 0.00 | 0.00 | 0.00 | 38 | 1014.6 |
| 20260506200626 | 25 | 211 | 22.5 | 30.6 | 0.00 | 0.00 | 0.00 | 38 | 1014.7 |
| 20260506195618 | 25 | 219 | 17.7 | 27.4 | 0.00 | 0.00 | 0.00 | 39 | 1014.9 |
| 20260506194658 | 24 | 213 | 19.3 | 27.4 | 0.00 | 0.00 | 0.00 | 38 | 1014.9 |
| 20260506193638 | 24 | 217 | 22.5 | 30.6 | 0.00 | 0.00 | 0.00 | 38 | 1014.8 |
| 20260506192633 | 24 | 205 | 19.3 | 29.0 | 0.00 | 0.00 | 0.00 | 40 | 1014.9 |
| 20260506191632 | 25 | 200 | 14.5 | 27.4 | 0.00 | 0.00 | 0.00 | 41 | 1014.8 |
| 20260506190631 | 23 | 200 | 16.1 | 22.5 | 0.00 | 0.00 | 0.00 | 40 | 1015.0 |
| 20260506185626 | 23 | 195 | 20.9 | 33.8 | 0.00 | 0.00 | 0.00 | 42 | 1014.8 |
| 20260506184708 | 23 | 195 | 14.5 | 22.5 | 0.00 | 0.00 | 0.00 | 45 | 1015.0 |
| 20260506183626 | 22 | 196 | 17.7 | 29.0 | 0.00 | 0.00 | 0.00 | 46 | 1014.9 |
| 20260506182623 | 22 | 213 | 20.9 | 32.2 | 0.00 | 0.00 | 0.00 | 46 | 1015.1 |
| 20260506181656 | 22 | 199 | 9.7 | 14.5 | 0.00 | 0.00 | 0.00 | 48 | 1015.3 |
| 20260506180634 | 22 | 213 | 12.9 | 24.1 | 0.00 | 0.00 | 0.00 | 49 | 1015.3 |
| 20260506175634 | 21 | 196 | 17.7 | 25.7 | 0.00 | 0.00 | 0.00 | 49 | 1015.2 |
| 20260506174634 | 21 | 214 | 20.9 | 32.2 | 0.00 | 0.00 | 0.00 | 48 | 1015.3 |
| 20260506173627 | 21 | 190 | 11.3 | 20.9 | 0.00 | 0.00 | 0.00 | 49 | 1015.2 |
| 20260506172626 | 21 | 193 | 17.7 | 20.9 | 0.00 | 0.00 | 0.00 | 49 | 1015.4 |
| 20260506171627 | 21 | 225 | 14.5 | 22.5 | 0.00 | 0.00 | 0.00 | 51 | 1015.7 |
| 20260506170626 | 20 | 195 | 11.3 | 17.7 | 0.00 | 0.00 | 0.00 | 53 | 1015.7 |
| 20260506165620 | 20 | 192 | 16.1 | 29.0 | 0.00 | 0.00 | 0.00 | 54 | 1015.8 |
| 20260506164658 | 20 | 201 | 12.9 | 20.9 | 0.00 | 0.00 | 0.00 | 55 | 1015.7 |
| 20260506163637 | 19 | 215 | 12.9 | 19.3 | 0.00 | 0.00 | 0.00 | 57 | 1015.9 |
| 20260506162636 | 19 | 217 | 20.9 | 29.0 | 0.00 | 0.00 | 0.00 | 56 | 1015.8 |
| 20260506161630 | 18 | 206 | 14.5 | 22.5 | 0.00 | 0.00 | 0.00 | 58 | 1015.8 |
| 20260506160631 | 18 | 206 | 25.7 | 30.6 | 0.00 | 0.00 | 0.00 | 60 | 1015.8 |
| 20260506155630 | 17 | 192 | 16.1 | 27.4 | 0.00 | 0.00 | 0.00 | 62 | 1015.6 |
| 20260506154627 | 17 | 194 | 14.5 | 20.9 | 0.00 | 0.00 | 0.00 | 62 | 1015.8 |
| 20260506153642 | 17 | 197 | 14.5 | 20.9 | 0.00 | 0.00 | 0.00 | 61 | 1015.7 |
| 20260506152624 | 17 | 198 | 14.5 | 20.9 | 0.00 | 0.00 | 0.00 | 62 | 1015.5 |
| 20260506151640 | 17 | 198 | 17.7 | 27.4 | 0.00 | 0.00 | 0.00 | 61 | 1015.5 |
| 20260506150638 | 17 | 201 | 16.1 | 24.1 | 0.00 | 0.00 | 0.00 | 63 | 1015.6 |
| 20260506145633 | 16 | 197 | 12.9 | 20.9 | 0.00 | 0.00 | 0.00 | 65 | 1015.4 |
| 20260506144635 | 16 | 199 | 16.1 | 19.3 | 0.00 | 0.00 | 0.00 | 66 | 1015.4 |
| 20260506143630 | 17 | 203 | 9.7 | 17.7 | 0.00 | 0.00 | 0.00 | 63 | 1015.4 |
| 20260506142632 | 18 | 193 | 12.9 | 16.1 | 0.00 | 0.00 | 0.00 | 54 | 1015.3 |
| 20260506141647 | 19 | 221 | 16.1 | 19.3 | 0.00 | 0.00 | 0.00 | 49 | 1015.2 |
| 20260506140641 | 19 | 246 | 8.0 | 20.9 | 0.00 | 0.00 | 0.00 | 46 | 1015.1 |
| 20260506135619 | 20 | 218 | 12.9 | 16.1 | 0.00 | 0.00 | 0.00 | 44 | 1015.1 |
| 20260506134639 | 20 | 247 | 8.0 | 11.3 | 0.00 | 0.00 | 0.00 | 43 | 1014.8 |
| 20260506133639 | 20 | 222 | 8.0 | 12.9 | 0.00 | 0.00 | 0.00 | 43 | 1014.7 |
| 20260506132632 | 19 | 235 | 8.0 | 16.1 | 0.00 | 0.00 | 0.00 | 44 | 1014.6 |
| 20260506131711 | 19 | 259 | 8.0 | 11.3 | 0.00 | 0.00 | 0.00 | 45 | 1014.5 |
| 20260506130631 | 18 | 234 | 11.3 | 17.7 | 0.00 | 0.00 | 0.00 | 45 | 1014.5 |
| 20260506125628 | 19 | 245 | 11.3 | 17.7 | 0.00 | 0.00 | 0.00 | 44 | 1014.2 |
| 20260506124622 | 19 | 253 | 14.5 | 19.3 | 0.00 | 0.00 | 0.00 | 44 | 1014.2 |
| 20260506123628 | 18 | 218 | 9.7 | 14.5 | 0.00 | 0.00 | 0.00 | 46 | 1014.2 |
| 20260506122623 | 18 | 225 | 9.7 | 16.1 | 0.00 | 0.00 | 0.00 | 46 | 1014.1 |
| 20260506121637 | 18 | 237 | 9.7 | 16.1 | 0.00 | 0.00 | 0.00 | 46 | 1014.1 |
| 20260506120655 | 19 | 236 | 9.7 | 14.5 | 0.00 | 0.00 | 0.00 | 45 | 1013.9 |
| 20260506115658 | 18 | 272 | 9.7 | 14.5 | 0.00 | 0.00 | 0.00 | 46 | 1013.9 |
| 20260506114633 | 18 | 232 | 11.3 | 16.1 | 0.00 | 0.00 | 0.00 | 48 | 1013.9 |
| 20260506113629 | 18 | 242 | 8.0 | 14.5 | 0.00 | 0.00 | 0.00 | 49 | 1013.5 |
| 20260506112626 | 18 | 256 | 6.4 | 9.7 | 0.00 | 0.00 | 0.00 | 49 | 1013.7 |
| 20260506111639 | 17 | 238 | 6.4 | 11.3 | 0.00 | 0.00 | 0.00 | 55 | 1013.7 |
| 20260506110647 | 15 | 266 | 3.2 | 4.8 | 0.00 | 0.00 | 0.00 | 64 | 1013.7 |
| 20260506105645 | 17 | 240 | 3.2 | 4.8 | 0.00 | 0.00 | 0.00 | 60 | 1013.6 |
| 20260506104642 | 16 | 205 | 0.0 | 3.2 | 0.00 | 0.00 | 0.00 | 61 | 1013.5 |
| 20260506103718 | 15 | 189 | 3.2 | 3.2 | 0.00 | 0.00 | 0.00 | 68 | 1013.4 |
| 20260506102633 | 16 | 329 | 4.8 | 6.4 | 0.00 | 0.00 | 0.00 | 65 | 1013.4 |
| 20260506101635 | 16 | 14 | 1.6 | 4.8 | 0.00 | 0.00 | 0.00 | 63 | 1013.2 |
| 20260506100627 | 16 | 209 | 1.6 | 3.2 | 0.00 | 0.00 | 0.00 | 65 | 1013.4 |
| 20260506095629 | 16 | 0.0 | 3.2 | 0.00 | 0.00 | 0.00 | 65 | 1013.3 | |
| 20260506094629 | 18 | 120 | 1.6 | 3.2 | 0.00 | 0.00 | 0.00 | 56 | 1013.2 |
| 20260506093621 | 18 | 169 | 3.2 | 4.8 | 0.00 | 0.00 | 0.00 | 51 | 1013.2 |
| 20260506092626 | 18 | 349 | 3.2 | 6.4 | 0.00 | 0.00 | 0.00 | 53 | 1013.4 |
| 20260506091638 | 21 | 223 | 6.4 | 11.3 | 0.00 | 0.00 | 0.00 | 45 | 1012.9 |
| 20260506090638 | 20 | 237 | 9.7 | 14.5 | 0.00 | 0.00 | 0.00 | 48 | 1013.0 |
| 20260506085632 | 20 | 286 | 11.3 | 14.5 | 0.00 | 0.00 | 0.00 | 47 | 1013.2 |
| 20260506084633 | 21 | 286 | 8.0 | 9.7 | 0.00 | 0.00 | 0.00 | 45 | 1013.2 |
| 20260506083628 | 21 | 316 | 14.5 | 17.7 | 0.00 | 0.00 | 0.00 | 42 | 1013.0 |
| 20260506082630 | 21 | 297 | 4.8 | 9.7 | 0.00 | 0.00 | 0.00 | 41 | 1012.9 |
| 20260506081628 | 21 | 256 | 6.4 | 9.7 | 0.00 | 0.00 | 0.00 | 44 | 1012.8 |
| 20260506080624 | 21 | 246 | 8.0 | 9.7 | 0.00 | 0.00 | 0.00 | 43 | 1012.8 |
| 20260506072636 | 22 | 258 | 6.4 | 8.0 | 0.00 | 0.00 | 0.00 | 39 | 1012.7 |
| 20260506071629 | 22 | 320 | 3.2 | 4.8 | 0.00 | 0.00 | 0.00 | 38 | 1012.7 |
| 20260506070654 | 22 | 188 | 1.6 | 3.2 | 0.00 | 0.00 | 0.00 | 38 | 1012.6 |
| 20260506061641 | 22 | 215 | 4.8 | 6.4 | 0.00 | 0.00 | 0.00 | 39 | 1012.5 |
| 20260506060719 | 22 | 193 | 1.6 | 4.8 | 0.00 | 0.00 | 0.00 | 39 | 1012.5 |
| 20260506050624 | 23 | 212 | 9.7 | 14.5 | 0.00 | 0.00 | 0.00 | 37 | 1012.2 |
| 20260506044637 | 23 | 180 | 8.0 | 11.3 | 0.00 | 0.00 | 0.00 | 36 | 1012.3 |
| 20260506043633 | 23 | 209 | 8.0 | 16.1 | 0.00 | 0.00 | 0.00 | 38 | 1012.3 |
| 20260506042716 | 23 | 211 | 4.8 | 8.0 | 0.00 | 0.00 | 0.00 | 37 | 1012.3 |
| 20260506041628 | 23 | 208 | 6.4 | 8.0 | 0.00 | 0.00 | 0.00 | 36 | 1012.2 |
| 20260506040633 | 23 | 218 | 6.4 | 9.7 | 0.00 | 0.00 | 0.00 | 34 | 1012.2 |
| 20260506035623 | 24 | 218 | 6.4 | 9.7 | 0.00 | 0.00 | 0.00 | 32 | 1012.0 |
| 20260506034626 | 24 | 224 | 4.8 | 6.4 | 0.00 | 0.00 | 0.00 | 32 | 1012.0 |
| 20260506033623 | 23 | 209 | 3.2 | 4.8 | 0.00 | 0.00 | 0.00 | 33 | 1011.8 |
| 20260506032619 | 23 | 161 | 3.2 | 4.8 | 0.00 | 0.00 | 0.00 | 33 | 1011.9 |
| 20260506031722 | 24 | 227 | 1.6 | 3.2 | 0.00 | 0.00 | 0.00 | 34 | 1011.7 |
| 20260506030635 | 25 | 0.0 | 1.6 | 0.00 | 0.00 | 0.00 | 33 | 1011.8 | |
| 20260506025633 | 26 | 217 | 3.2 | 3.2 | 0.00 | 0.00 | 0.00 | 33 | 1011.5 |
| 20260506024633 | 26 | 0.0 | 1.6 | 0.00 | 0.00 | 0.00 | 27 | 1011.5 | |
| 20260506023642 | 26 | 21 | 3.2 | 3.2 | 0.00 | 0.00 | 0.00 | 27 | 1011.5 |
| 20260506022636 | 26 | 52 | 4.8 | 4.8 | 0.00 | 0.00 | 0.00 | 26 | 1011.5 |
| 20260506021624 | 27 | 66 | 4.8 | 6.4 | 0.00 | 0.00 | 0.00 | 26 | 1011.5 |
| 20260506020624 | 27 | 28 | 3.2 | 6.4 | 0.00 | 0.00 | 0.00 | 27 | 1011.7 |
| 20260506015622 | 27 | 87 | 1.6 | 3.2 | 0.00 | 0.00 | 0.00 | 25 | 1011.6 |
| 20260506014647 | 27 | 56 | 4.8 | 6.4 | 0.00 | 0.00 | 0.00 | 26 | 1011.5 |
| 20260506013656 | 27 | 29 | 6.4 | 8.0 | 0.00 | 0.00 | 0.00 | 25 | 1011.5 |
| 20260506012633 | 27 | 20 | 8.0 | 9.7 | 0.00 | 0.00 | 0.00 | 24 | 1011.5 |
| 20260506011634 | 27 | 15 | 9.7 | 12.9 | 0.00 | 0.00 | 0.00 | 24 | 1011.5 |
| 20260506010626 | 28 | 9 | 11.3 | 14.5 | 0.00 | 0.00 | 0.00 | 24 | 1011.5 |
| 20260506005647 | 27 | 24 | 4.8 | 6.4 | 0.00 | 0.00 | 0.00 | 24 | 1011.6 |
| 20260506004645 | 27 | 24 | 8.0 | 9.7 | 0.00 | 0.00 | 0.00 | 25 | 1011.8 |
| 20260506003624 | 28 | 16 | 9.7 | 12.9 | 0.00 | 0.00 | 0.00 | 24 | 1011.7 |
| 20260506002618 | 27 | 34 | 6.4 | 12.9 | 0.00 | 0.00 | 0.00 | 25 | 1011.8 |
| 20260506001635 | 27 | 42 | 11.3 | 14.5 | 0.00 | 0.00 | 0.00 | 25 | 1011.7 |
| 20260506000635 | 27 | 43 | 6.4 | 9.7 | 0.00 | 0.00 | 0.00 | 26 | 1011.8 |